Time,TemperatureF,DewpointF,PressureIn,WindDirection,WindDirectionDegrees,WindSpeedMPH,WindSpeedGustMPH,Humidity,HourlyPrecipIn,Conditions,Clouds,dailyrainin,SoftwareType,DateUTC
2013-04-11 00:03:00,71.0,57.0,-100.00,South,185,5.0,8.0,62,-99.99,,,-99.99,,2013-04-11 04:03:00,
2013-04-11 00:13:00,70.0,57.0,-100.00,SSE,160,4.0,9.0,62,-99.99,,,-99.99,,2013-04-11 04:13:00,
2013-04-11 00:23:00,70.0,56.0,-100.00,SW,215,4.0,10.0,62,-99.99,,,-99.99,,2013-04-11 04:23:00,
2013-04-11 00:33:00,69.0,57.0,-100.00,SSW,200,2.0,7.0,64,-99.99,,,-99.99,,2013-04-11 04:33:00,
2013-04-11 00:43:00,69.0,56.0,-100.00,SSW,200,2.0,7.0,64,-99.99,,,-99.99,,2013-04-11 04:43:00,
2013-04-11 00:52:00,68.0,56.0,-100.00,SSW,200,3.0,6.0,65,-99.99,,,-99.99,,2013-04-11 04:52:00,
2013-04-11 01:03:00,68.0,56.0,-100.00,SSW,210,1.0,4.0,66,-99.99,,,-99.99,,2013-04-11 05:03:00,
2013-04-11 01:13:00,68.0,56.0,-100.00,SW,230,1.0,4.0,67,-99.99,,,-99.99,,2013-04-11 05:13:00,
2013-04-11 01:23:00,68.0,57.0,-100.00,SSW,200,2.0,4.0,68,-99.99,,,-99.99,,2013-04-11 05:23:00,
2013-04-11 01:32:00,68.0,57.0,-100.00,SSW,200,1.0,4.0,68,-99.99,,,-99.99,,2013-04-11 05:32:00,
2013-04-11 01:42:00,67.0,57.0,-100.00,SW,215,2.0,4.0,68,-99.99,,,-99.99,,2013-04-11 05:42:00,
2013-04-11 01:52:00,67.0,56.0,-100.00,SE,145,4.0,6.0,69,-99.99,,,-99.99,,2013-04-11 05:52:00,
2013-04-11 02:02:00,67.0,57.0,-100.00,SSE,160,4.0,6.0,70,-99.99,,,-99.99,,2013-04-11 06:02:00,
2013-04-11 02:12:00,67.0,56.0,-100.00,South,175,4.0,7.0,70,-99.99,,,-99.99,,2013-04-11 06:12:00,
2013-04-11 02:22:00,67.0,57.0,-100.00,SSE,150,5.0,10.0,71,-99.99,,,-99.99,,2013-04-11 06:22:00,
2013-04-11 02:32:00,67.0,57.0,-100.00,SSE,150,5.0,10.0,71,-99.99,,,-99.99,,2013-04-11 06:32:00,
2013-04-11 02:42:00,66.0,57.0,-100.00,South,185,6.0,14.0,73,-99.99,,,-99.99,,2013-04-11 06:42:00,
2013-04-11 02:52:00,66.0,58.0,-100.00,South,175,9.0,16.0,75,-99.99,,,-99.99,,2013-04-11 06:52:00,
2013-04-11 03:02:00,65.0,58.0,-100.00,South,180,6.0,14.0,77,-99.99,,,-99.99,,2013-04-11 07:02:00,
2013-04-11 03:12:00,65.0,58.0,-100.00,SSW,205,5.0,11.0,79,-99.99,,,-99.99,,2013-04-11 07:12:00,
2013-04-11 03:22:00,65.0,59.0,-100.00,SSE,160,7.0,12.0,81,-99.99,,,-99.99,,2013-04-11 07:22:00,
2013-04-11 03:32:00,64.0,59.0,-100.00,SSE,165,5.0,10.0,83,-99.99,,,-99.99,,2013-04-11 07:32:00,
2013-04-11 03:43:00,64.0,59.0,-100.00,SSE,160,4.0,11.0,85,-99.99,,,-99.99,,2013-04-11 07:43:00,
2013-04-11 03:52:00,63.0,60.0,-100.00,South,180,4.0,11.0,87,-99.99,,,-99.99,,2013-04-11 07:52:00,
2013-04-11 04:03:00,63.0,60.0,-100.00,South,185,5.0,10.0,89,-99.99,,,-99.99,,2013-04-11 08:03:00,
2013-04-11 04:12:00,63.0,60.0,-100.00,SSW,210,2.0,9.0,90,-99.99,,,-99.99,,2013-04-11 08:12:00,
2013-04-11 04:22:00,63.0,60.0,-100.00,South,175,3.0,8.0,92,-99.99,,,-99.99,,2013-04-11 08:22:00,
2013-04-11 04:32:00,62.0,61.0,-100.00,South,170,3.0,8.0,94,-99.99,,,-99.99,,2013-04-11 08:32:00,
2013-04-11 04:42:00,62.0,61.0,-100.00,SSW,200,4.0,6.0,95,-99.99,,,-99.99,,2013-04-11 08:42:00,
2013-04-11 04:52:00,62.0,61.0,-100.00,SSW,205,2.0,8.0,97,-99.99,,,-99.99,,2013-04-11 08:52:00,
2013-04-11 05:02:00,62.0,61.0,-100.00,South,185,4.0,8.0,98,-99.99,,,-99.99,,2013-04-11 09:02:00,
2013-04-11 05:12:00,62.0,62.0,-100.00,SSW,210,4.0,6.0,99,-99.99,,,-99.99,,2013-04-11 09:12:00,
2013-04-11 05:22:00,62.0,61.0,-100.00,SSW,200,4.0,6.0,99,-99.99,,,-99.99,,2013-04-11 09:22:00,
2013-04-11 05:33:00,62.0,61.0,-100.00,South,185,4.0,6.0,99,-99.99,,,-99.99,,2013-04-11 09:33:00,
2013-04-11 05:43:00,62.0,61.0,-100.00,South,185,4.0,6.0,99,-99.99,,,-99.99,,2013-04-11 09:43:00,
2013-04-11 05:53:00,61.0,61.0,-100.00,South,175,4.0,6.0,99,-99.99,,,-99.99,,2013-04-11 09:53:00,
2013-04-11 06:03:00,61.0,61.0,-100.00,South,175,4.0,6.0,99,-99.99,,,-99.99,,2013-04-11 10:03:00,
2013-04-11 06:13:00,61.0,61.0,-100.00,SW,225,3.0,6.0,99,-99.99,,,-99.99,,2013-04-11 10:13:00,
2013-04-11 06:23:00,61.0,60.0,-100.00,SSW,210,4.0,6.0,99,-99.99,,,-99.99,,2013-04-11 10:23:00,
2013-04-11 06:32:00,60.0,60.0,-100.00,SSW,205,4.0,5.0,99,-99.99,,,-99.99,,2013-04-11 10:32:00,
2013-04-11 06:42:00,60.0,60.0,-100.00,SSW,205,4.0,5.0,99,-99.99,,,-99.99,,2013-04-11 10:42:00,
2013-04-11 06:52:00,60.0,59.0,-100.00,SW,220,3.0,5.0,99,-99.99,,,-99.99,,2013-04-11 10:52:00,
2013-04-11 07:03:00,60.0,59.0,-100.00,SW,220,3.0,5.0,99,-99.99,,,-99.99,,2013-04-11 11:03:00,
2013-04-11 07:13:00,60.0,59.0,-100.00,WSW,245,4.0,4.0,99,-99.99,,,-99.99,,2013-04-11 11:13:00,
2013-04-11 07:23:00,59.0,59.0,-100.00,SW,235,1.0,4.0,99,-99.99,,,-99.99,,2013-04-11 11:23:00,
2013-04-11 07:32:00,59.0,59.0,-100.00,WSW,250,2.0,4.0,99,-99.99,,,-99.99,,2013-04-11 11:32:00,
2013-04-11 07:43:00,59.0,59.0,-100.00,WSW,250,2.0,5.0,99,-99.99,,,-99.99,,2013-04-11 11:43:00,
2013-04-11 07:52:00,60.0,59.0,-100.00,WSW,240,1.0,4.0,99,-99.99,,,-99.99,,2013-04-11 11:52:00,
2013-04-11 08:02:00,60.0,60.0,-100.00,WSW,255,3.0,4.0,99,-99.99,,,-99.99,,2013-04-11 12:02:00,
2013-04-11 08:13:00,61.0,61.0,-100.00,WSW,245,2.0,4.0,99,-99.99,,,-99.99,,2013-04-11 12:13:00,
2013-04-11 08:23:00,62.0,62.0,-100.00,WSW,245,2.0,4.0,99,-99.99,,,-99.99,,2013-04-11 12:23:00,
2013-04-11 08:32:00,62.0,62.0,-100.00,WSW,245,4.0,4.0,99,-99.99,,,-99.99,,2013-04-11 12:32:00,
2013-04-11 08:43:00,62.0,62.0,-100.00,SW,220,3.0,4.0,99,-99.99,,,-99.99,,2013-04-11 12:43:00,
2013-04-11 08:52:00,62.0,62.0,-100.00,WSW,245,1.0,5.0,99,-99.99,,,-99.99,,2013-04-11 12:52:00,
2013-04-11 09:02:00,62.0,62.0,-100.00,SW,230,1.0,4.0,99,-99.99,,,-99.99,,2013-04-11 13:02:00,
2013-04-11 09:13:00,62.0,62.0,-100.00,WSW,240,2.0,5.0,99,-99.99,,,-99.99,,2013-04-11 13:13:00,
2013-04-11 09:23:00,62.0,62.0,-100.00,WSW,240,3.0,6.0,99,-99.99,,,-99.99,,2013-04-11 13:23:00,
2013-04-11 09:32:00,62.0,62.0,-100.00,SW,225,3.0,5.0,99,-99.99,,,-99.99,,2013-04-11 13:32:00,
2013-04-11 09:43:00,63.0,62.0,-100.00,SW,225,3.0,7.0,99,-99.99,,,-99.99,,2013-04-11 13:43:00,
2013-04-11 09:53:00,64.0,63.0,-100.00,SW,220,1.0,4.0,99,-99.99,,,-99.99,,2013-04-11 13:53:00,
2013-04-11 10:03:00,64.0,64.0,-100.00,West,275,5.0,7.0,99,-99.99,,,-99.99,,2013-04-11 14:03:00,
2013-04-11 10:12:00,65.0,64.0,-100.00,West,270,7.0,9.0,99,-99.99,,,-99.99,,2013-04-11 14:12:00,
2013-04-11 10:20:00,67.0,67.0,-100.00,SW,235,5.0,11.0,99,-99.99,,,-99.99,,2013-04-11 14:20:00,
2013-04-11 10:22:00,66.0,66.0,-100.00,West,265,6.0,9.0,99,-99.99,,,-99.99,,2013-04-11 14:22:00,
2013-04-11 10:33:00,66.0,66.0,-100.00,West,265,6.0,10.0,99,-99.99,,,-99.99,,2013-04-11 14:33:00,
2013-04-11 10:42:00,66.0,66.0,-100.00,WSW,245,8.0,10.0,99,-99.99,,,-99.99,,2013-04-11 14:42:00,
2013-04-11 10:52:00,67.0,67.0,-100.00,SW,235,5.0,11.0,99,-99.99,,,-99.99,,2013-04-11 14:52:00,
2013-04-11 11:02:00,67.0,67.0,-100.00,SW,235,5.0,11.0,99,-99.99,,,-99.99,,2013-04-11 15:02:00,
2013-04-11 11:12:00,67.0,67.0,-100.00,SW,235,5.0,11.0,99,-99.99,,,-99.99,,2013-04-11 15:12:00,
2013-04-11 12:23:00,76.0,66.0,-100.00,SSW,210,4.0,11.0,72,-99.99,,,-99.99,,2013-04-11 16:23:00,
2013-04-11 12:32:00,76.0,66.0,-100.00,SSW,210,4.0,11.0,72,-99.99,,,-99.99,,2013-04-11 16:32:00,
2013-04-11 12:42:00,76.0,66.0,-100.00,SSW,210,4.0,11.0,72,-99.99,,,-99.99,,2013-04-11 16:42:00,
2013-04-11 12:52:00,77.0,65.0,-100.00,SW,225,6.0,13.0,66,-99.99,,,-99.99,,2013-04-11 16:52:00,
2013-04-11 13:03:00,75.0,64.0,-100.00,SW,230,5.0,13.0,67,-99.99,,,-99.99,,2013-04-11 17:03:00,
2013-04-11 13:13:00,75.0,64.0,-100.00,SW,230,5.0,13.0,67,-99.99,,,-99.99,,2013-04-11 17:13:00,
2013-04-11 13:23:00,76.0,64.0,-100.00,South,185,7.0,14.0,65,-99.99,,,-99.99,,2013-04-11 17:23:00,
2013-04-11 13:33:00,77.0,64.0,-100.00,SW,235,6.0,10.0,64,-99.99,,,-99.99,,2013-04-11 17:33:00,
2013-04-11 13:40:00,77.0,63.0,-100.00,South,175,4.0,14.0,62,-99.99,,,-99.99,,2013-04-11 17:40:00,
2013-04-11 13:43:00,77.0,63.0,-100.00,SW,225,8.0,16.0,63,-99.99,,,-99.99,,2013-04-11 17:43:00,
2013-04-11 13:52:00,77.0,63.0,-100.00,SW,215,10.0,16.0,62,-99.99,,,-99.99,,2013-04-11 17:52:00,
2013-04-11 14:03:00,77.0,63.0,-100.00,SW,235,6.0,14.0,62,-99.99,,,-99.99,,2013-04-11 18:03:00,
2013-04-11 14:13:00,77.0,63.0,-100.00,South,175,4.0,14.0,62,-99.99,,,-99.99,,2013-04-11 18:13:00,
2013-04-11 14:23:00,77.0,63.0,-100.00,South,175,4.0,14.0,62,-99.99,,,-99.99,,2013-04-11 18:23:00,
2013-04-11 14:33:00,77.0,63.0,-100.00,South,175,4.0,14.0,62,-99.99,,,-99.99,,2013-04-11 18:33:00,
2013-04-11 14:53:00,80.0,65.0,-100.00,SE,140,9.0,16.0,60,-99.99,,,-99.99,,2013-04-11 18:53:00,
2013-04-11 15:04:00,79.0,64.0,-100.00,SW,220,5.0,18.0,59,-99.99,,,-99.99,,2013-04-11 19:04:00,
2013-04-11 15:14:00,79.0,64.0,-100.00,SW,220,5.0,18.0,59,-99.99,,,-99.99,,2013-04-11 19:14:00,
2013-04-11 15:23:00,79.0,63.0,-100.00,South,185,5.0,14.0,59,-99.99,,,-99.99,,2013-04-11 19:23:00,
2013-04-11 15:33:00,77.0,62.0,-100.00,South,185,8.0,14.0,60,-99.99,,,-99.99,,2013-04-11 19:33:00,
2013-04-11 15:43:00,79.0,63.0,-100.00,SW,235,7.0,14.0,59,-99.99,,,-99.99,,2013-04-11 19:43:00,
2013-04-11 15:53:00,80.0,64.0,-100.00,SW,230,7.0,17.0,59,-99.99,,,-99.99,,2013-04-11 19:53:00,
2013-04-11 16:03:00,80.0,64.0,-100.00,SW,230,7.0,17.0,59,-99.99,,,-99.99,,2013-04-11 20:03:00,
2013-04-11 16:13:00,80.0,64.0,-100.00,SSW,210,6.0,11.0,59,-99.99,,,-99.99,,2013-04-11 20:13:00,
2013-04-11 16:22:00,80.0,64.0,-100.00,SSE,165,8.0,14.0,59,-99.99,,,-99.99,,2013-04-11 20:22:00,
2013-04-11 16:33:00,81.0,65.0,-100.00,SSW,200,6.0,14.0,58,-99.99,,,-99.99,,2013-04-11 20:33:00,
2013-04-11 16:43:00,80.0,63.0,-100.00,SW,225,8.0,12.0,57,-99.99,,,-99.99,,2013-04-11 20:43:00,
2013-04-11 16:52:00,80.0,63.0,-100.00,SW,225,8.0,12.0,57,-99.99,,,-99.99,,2013-04-11 20:52:00,
2013-04-11 17:03:00,79.0,63.0,-100.00,SE,145,6.0,14.0,58,-99.99,,,-99.99,,2013-04-11 21:03:00,
2013-04-11 17:12:00,80.0,64.0,-100.00,South,170,7.0,15.0,58,-99.99,,,-99.99,,2013-04-11 21:12:00,
2013-04-11 17:23:00,79.0,63.0,-100.00,SSE,150,11.0,21.0,58,-99.99,,,-99.99,,2013-04-11 21:23:00,
2013-04-11 17:33:00,77.0,62.0,-100.00,SSE,150,9.0,19.0,60,-99.99,,,-99.99,,2013-04-11 21:33:00,
2013-04-11 17:43:00,77.0,62.0,-100.00,South,170,6.0,13.0,60,-99.99,,,-99.99,,2013-04-11 21:43:00,
2013-04-11 17:53:00,77.0,62.0,-100.00,South,170,6.0,13.0,60,-99.99,,,-99.99,,2013-04-11 21:53:00,
2013-04-11 18:03:00,77.0,63.0,-100.00,SSE,160,6.0,12.0,61,-99.99,,,-99.99,,2013-04-11 22:03:00,
2013-04-11 18:13:00,77.0,63.0,-100.00,SSE,150,4.0,10.0,62,-99.99,,,-99.99,,2013-04-11 22:13:00,
2013-04-11 18:23:00,77.0,63.0,-100.00,SE,145,4.0,8.0,62,-99.99,,,-99.99,,2013-04-11 22:23:00,
2013-04-11 18:33:00,71.0,69.0,-100.00,SSE,150,14.0,24.0,93,-99.99,,,-99.99,,2013-04-11 22:33:00,
2013-04-11 18:44:00,68.0,68.0,-100.00,SSE,150,5.0,11.0,99,-99.99,,,-99.99,,2013-04-11 22:44:00,
2013-04-11 18:53:00,68.0,68.0,-100.00,SSE,150,5.0,11.0,99,-99.99,,,-99.99,,2013-04-11 22:53:00,
2013-04-11 19:04:00,69.0,69.0,-100.00,SE,145,4.0,7.0,99,-99.99,,,-99.99,,2013-04-11 23:04:00,
2013-04-11 19:13:00,69.0,69.0,-100.00,SE,140,2.0,5.0,99,-99.99,,,-99.99,,2013-04-11 23:13:00,
2013-04-11 19:23:00,69.0,69.0,-100.00,SE,145,2.0,6.0,99,-99.99,,,-99.99,,2013-04-11 23:23:00,
2013-04-11 19:33:00,69.0,69.0,-100.00,South,175,2.0,4.0,99,-99.99,,,-99.99,,2013-04-11 23:33:00,
2013-04-11 19:43:00,69.0,69.0,-100.00,SE,145,3.0,6.0,99,-99.99,,,-99.99,,2013-04-11 23:43:00,
2013-04-11 19:53:00,69.0,68.0,-100.00,SSE,150,4.0,6.0,99,-99.99,,,-99.99,,2013-04-11 23:53:00,
2013-04-11 20:02:00,69.0,69.0,-100.00,SSE,150,4.0,6.0,99,-99.99,,,-99.99,,2013-04-12 00:02:00,
2013-04-11 20:12:00,69.0,69.0,-100.00,SE,135,2.0,4.0,99,-99.99,,,-99.99,,2013-04-12 00:12:00,
2013-04-11 20:22:00,69.0,69.0,-100.00,SE,135,4.0,4.0,99,-99.99,,,-99.99,,2013-04-12 00:22:00,
2013-04-11 20:33:00,69.0,69.0,-100.00,SE,135,4.0,4.0,99,-99.99,,,-99.99,,2013-04-12 00:33:00,
2013-04-11 20:42:00,69.0,68.0,-100.00,SE,140,8.0,11.0,99,-99.99,,,-99.99,,2013-04-12 00:42:00,
2013-04-11 20:52:00,69.0,68.0,-100.00,SE,140,8.0,11.0,99,-99.99,,,-99.99,,2013-04-12 00:52:00,
2013-04-11 21:03:00,68.0,68.0,-100.00,SE,135,4.0,10.0,99,-99.99,,,-99.99,,2013-04-12 01:03:00,
2013-04-11 21:12:00,68.0,68.0,-100.00,SSE,150,5.0,10.0,99,-99.99,,,-99.99,,2013-04-12 01:12:00,
2013-04-11 21:22:00,68.0,68.0,-100.00,SE,135,6.0,11.0,99,-99.99,,,-99.99,,2013-04-12 01:22:00,
2013-04-11 21:33:00,68.0,68.0,-100.00,SE,135,6.0,10.0,99,-99.99,,,-99.99,,2013-04-12 01:33:00,
2013-04-11 21:42:00,68.0,68.0,-100.00,SE,145,6.0,10.0,99,-99.99,,,-99.99,,2013-04-12 01:42:00,
2013-04-11 21:52:00,68.0,68.0,-100.00,SE,145,6.0,10.0,99,-99.99,,,-99.99,,2013-04-12 01:52:00,
2013-04-11 22:03:00,69.0,68.0,-100.00,SSE,160,7.0,14.0,99,-99.99,,,-99.99,,2013-04-12 02:03:00,
2013-04-11 22:12:00,69.0,69.0,-100.00,SSE,150,9.0,15.0,99,-99.99,,,-99.99,,2013-04-12 02:12:00,
2013-04-11 22:22:00,69.0,69.0,-100.00,SSE,165,6.0,16.0,99,-99.99,,,-99.99,,2013-04-12 02:22:00,
2013-04-11 22:32:00,69.0,69.0,-100.00,SSE,150,9.0,16.0,99,-99.99,,,-99.99,,2013-04-12 02:32:00,
2013-04-11 22:42:00,69.0,69.0,-100.00,SSE,165,8.0,16.0,99,-99.99,,,-99.99,,2013-04-12 02:42:00,
2013-04-11 22:52:00,69.0,69.0,-100.00,SSE,165,8.0,16.0,99,-99.99,,,-99.99,,2013-04-12 02:52:00,
2013-04-11 23:02:00,69.0,69.0,-100.00,SSE,165,7.0,14.0,99,-99.99,,,-99.99,,2013-04-12 03:02:00,
2013-04-11 23:12:00,69.0,68.0,-100.00,SSE,155,9.0,26.0,99,-99.99,,,-99.99,,2013-04-12 03:12:00,
2013-04-11 23:22:00,68.0,68.0,-100.00,SE,140,6.0,13.0,99,-99.99,,,-99.99,,2013-04-12 03:22:00,
2013-04-11 23:33:00,68.0,68.0,-100.00,SE,145,6.0,16.0,99,-99.99,,,-99.99,,2013-04-12 03:33:00,
2013-04-11 23:43:00,68.0,68.0,-100.00,SSE,150,8.0,12.0,99,-99.99,,,-99.99,,2013-04-12 03:43:00,
2013-04-11 23:52:00,68.0,68.0,-100.00,South,170,5.0,10.0,99,-99.99,,,-99.99,,2013-04-12 03:52:00,